Year,Month,Day,Hour,Minute,Value (Times are PST for temperature in C)
2016,06,27,00,00,15.90
2016,06,27,00,01,15.90
2016,06,27,00,02,15.80
2016,06,27,00,03,15.80
2016,06,27,00,04,15.80
2016,06,27,00,05,15.70
2016,06,27,00,06,15.70
2016,06,27,00,07,15.60
2016,06,27,00,08,15.60
2016,06,27,00,09,15.60
2016,06,27,00,10,15.50
2016,06,27,00,11,15.50
2016,06,27,00,12,15.50
2016,06,27,00,13,15.40
2016,06,27,00,14,15.40
2016,06,27,00,15,15.40
2016,06,27,00,16,15.40
2016,06,27,00,17,15.40
2016,06,27,00,18,15.40
2016,06,27,00,19,15.30
2016,06,27,00,20,15.30
2016,06,27,00,21,15.30
2016,06,27,00,22,15.30
2016,06,27,00,23,15.30
2016,06,27,00,24,15.30
2016,06,27,00,25,15.20
2016,06,27,00,26,15.20
2016,06,27,00,27,15.20
2016,06,27,00,28,15.10
2016,06,27,00,29,15.10
2016,06,27,00,30,15.10
2016,06,27,00,31,15.00
2016,06,27,00,32,15.00
2016,06,27,00,33,15.00
2016,06,27,00,34,15.00
2016,06,27,00,35,15.00
2016,06,27,00,36,15.00
2016,06,27,00,37,15.00
2016,06,27,00,38,15.00
2016,06,27,00,39,15.00
2016,06,27,00,40,15.00
2016,06,27,00,41,15.00
2016,06,27,00,42,15.00
2016,06,27,00,43,15.00
2016,06,27,00,44,14.90
2016,06,27,00,45,14.90
2016,06,27,00,46,14.80
2016,06,27,00,47,14.80
2016,06,27,00,48,14.80
2016,06,27,00,49,14.80
2016,06,27,00,50,14.80
2016,06,27,00,51,14.80
2016,06,27,00,52,14.80
2016,06,27,00,53,14.80
2016,06,27,00,54,14.80
2016,06,27,00,55,14.80
2016,06,27,00,56,14.80
2016,06,27,00,57,14.80
2016,06,27,00,58,14.80
2016,06,27,00,59,14.70
2016,06,27,01,00,14.70
2016,06,27,01,01,14.70
2016,06,27,01,02,14.60
2016,06,27,01,03,14.60
2016,06,27,01,04,14.50
2016,06,27,01,05,14.40
2016,06,27,01,06,14.40
2016,06,27,01,07,14.30
2016,06,27,01,08,14.30
2016,06,27,01,09,14.30
2016,06,27,01,10,14.20
2016,06,27,01,11,14.20
2016,06,27,01,12,14.10
2016,06,27,01,13,14.10
2016,06,27,01,14,14.10
2016,06,27,01,15,14.10
2016,06,27,01,16,14.10
2016,06,27,01,17,14.00
2016,06,27,01,18,14.00
2016,06,27,01,19,14.00
2016,06,27,01,20,14.00
2016,06,27,01,21,13.90
2016,06,27,01,22,13.90
2016,06,27,01,23,13.80
2016,06,27,01,24,13.80
2016,06,27,01,25,13.80
2016,06,27,01,26,13.70
2016,06,27,01,27,13.70
2016,06,27,01,28,13.80
2016,06,27,01,29,13.80
2016,06,27,01,30,13.80
2016,06,27,01,31,13.80
2016,06,27,01,32,13.80
2016,06,27,01,33,13.80
2016,06,27,01,34,13.80
2016,06,27,01,35,13.80
2016,06,27,01,36,13.80
2016,06,27,01,37,13.80
2016,06,27,01,38,13.80
2016,06,27,01,39,13.80
2016,06,27,01,40,13.80
2016,06,27,01,41,13.90
2016,06,27,01,42,13.90
2016,06,27,01,43,13.90
2016,06,27,01,44,14.00
2016,06,27,01,45,14.00
2016,06,27,01,46,14.00
2016,06,27,01,47,14.00
2016,06,27,01,48,14.00
2016,06,27,01,49,14.00
2016,06,27,01,50,14.00
2016,06,27,01,51,14.00
2016,06,27,01,52,14.00
2016,06,27,01,53,14.00
2016,06,27,01,54,14.00
2016,06,27,01,55,14.00
2016,06,27,01,56,13.90
2016,06,27,01,57,13.90
2016,06,27,01,58,13.90
2016,06,27,01,59,13.90
2016,06,27,02,00,13.90
2016,06,27,02,01,13.90
2016,06,27,02,02,13.90
2016,06,27,02,03,13.90
2016,06,27,02,04,13.90
2016,06,27,02,05,13.90
2016,06,27,02,06,13.90
2016,06,27,02,07,13.90
2016,06,27,02,08,13.90
2016,06,27,02,09,14.00
2016,06,27,02,10,14.00
2016,06,27,02,11,14.10
2016,06,27,02,12,14.20
2016,06,27,02,13,14.30
2016,06,27,02,14,14.30
2016,06,27,02,15,14.30
2016,06,27,02,16,14.30
2016,06,27,02,17,14.30
2016,06,27,02,18,14.30
2016,06,27,02,19,14.20
2016,06,27,02,20,14.20
2016,06,27,02,21,14.10
2016,06,27,02,22,14.10
2016,06,27,02,23,14.10
2016,06,27,02,24,14.10
2016,06,27,02,25,14.10
2016,06,27,02,26,14.10
2016,06,27,02,27,14.10
2016,06,27,02,28,14.10
2016,06,27,02,29,14.10
2016,06,27,02,30,14.00
2016,06,27,02,31,14.00
2016,06,27,02,32,13.90
2016,06,27,02,33,13.90
2016,06,27,02,34,13.90
2016,06,27,02,35,13.90
2016,06,27,02,36,13.90
2016,06,27,02,37,13.90
2016,06,27,02,38,13.90
2016,06,27,02,39,13.90
2016,06,27,02,40,13.90
2016,06,27,02,41,13.90
2016,06,27,02,42,13.90
2016,06,27,02,43,13.90
2016,06,27,02,44,13.90
2016,06,27,02,45,13.80
2016,06,27,02,46,13.80
2016,06,27,02,47,13.80
2016,06,27,02,48,13.80
2016,06,27,02,49,13.70
2016,06,27,02,50,13.70
2016,06,27,02,51,13.70
2016,06,27,02,52,13.80
2016,06,27,02,53,13.80
2016,06,27,02,54,13.80
2016,06,27,02,55,13.80
2016,06,27,02,56,13.80
2016,06,27,02,57,13.90
2016,06,27,02,58,13.90
2016,06,27,02,59,13.90
2016,06,27,03,00,13.80
2016,06,27,03,01,13.80
2016,06,27,03,02,13.80
2016,06,27,03,03,13.70
2016,06,27,03,04,13.60
2016,06,27,03,05,13.60
2016,06,27,03,06,13.60
2016,06,27,03,07,13.50
2016,06,27,03,08,13.50
2016,06,27,03,09,13.50
2016,06,27,03,10,13.50
2016,06,27,03,11,13.60
2016,06,27,03,12,13.60
2016,06,27,03,13,13.70
2016,06,27,03,14,13.80
2016,06,27,03,15,13.90
2016,06,27,03,16,13.90
2016,06,27,03,17,14.00
2016,06,27,03,18,14.00
2016,06,27,03,19,14.10
2016,06,27,03,20,14.10
2016,06,27,03,21,14.10
2016,06,27,03,22,14.20
2016,06,27,03,23,14.20
2016,06,27,03,24,14.20
2016,06,27,03,25,14.30
2016,06,27,03,26,14.30
2016,06,27,03,27,14.30
2016,06,27,03,28,14.30
2016,06,27,03,29,14.40
2016,06,27,03,30,14.40
2016,06,27,03,31,14.40
2016,06,27,03,32,14.40
2016,06,27,03,33,14.50
2016,06,27,03,34,14.50
2016,06,27,03,35,14.60
2016,06,27,03,36,14.60
2016,06,27,03,37,14.70
2016,06,27,03,38,14.70
2016,06,27,03,39,14.70
2016,06,27,03,40,14.80
2016,06,27,03,41,14.80
2016,06,27,03,42,14.90
2016,06,27,03,43,14.90
2016,06,27,03,44,15.00
2016,06,27,03,45,15.00
2016,06,27,03,46,15.00
2016,06,27,03,47,15.00
2016,06,27,03,48,15.00
2016,06,27,03,49,15.00
2016,06,27,03,50,15.00
2016,06,27,03,51,15.00
2016,06,27,03,52,15.00
2016,06,27,03,53,15.00
2016,06,27,03,54,15.00
2016,06,27,03,55,15.00
2016,06,27,03,56,15.10
2016,06,27,03,57,15.10
2016,06,27,03,58,15.10
2016,06,27,03,59,15.20
2016,06,27,04,00,15.20
2016,06,27,04,01,15.20
2016,06,27,04,02,15.20
2016,06,27,04,03,15.20
2016,06,27,04,04,15.30
2016,06,27,04,05,15.40
2016,06,27,04,06,15.40
2016,06,27,04,07,15.50
2016,06,27,04,08,15.50
2016,06,27,04,09,15.60
2016,06,27,04,10,15.60
2016,06,27,04,11,15.60
2016,06,27,04,12,15.60
2016,06,27,04,13,15.60
2016,06,27,04,14,15.60
2016,06,27,04,15,15.60
2016,06,27,04,16,15.60
2016,06,27,04,17,15.60
2016,06,27,04,18,15.60
2016,06,27,04,19,15.60
2016,06,27,04,20,15.60
2016,06,27,04,21,15.60
2016,06,27,04,22,15.60
2016,06,27,04,23,15.60
2016,06,27,04,24,15.60
2016,06,27,04,25,15.60
2016,06,27,04,26,15.70
2016,06,27,04,27,15.70
2016,06,27,04,28,15.70
2016,06,27,04,29,15.70
2016,06,27,04,30,15.70
2016,06,27,04,31,15.70
2016,06,27,04,32,15.70
2016,06,27,04,33,15.70
2016,06,27,04,34,15.70
2016,06,27,04,35,15.70
2016,06,27,04,36,15.70
2016,06,27,04,37,15.70
2016,06,27,04,38,15.70
2016,06,27,04,39,15.70
2016,06,27,04,40,15.70
2016,06,27,04,41,15.70
2016,06,27,04,42,15.70
2016,06,27,04,43,15.70
2016,06,27,04,44,15.70
2016,06,27,04,45,15.70
2016,06,27,04,46,15.80
2016,06,27,04,47,15.90
2016,06,27,04,48,16.00
2016,06,27,04,49,16.10
2016,06,27,04,50,16.20
2016,06,27,04,51,16.30
2016,06,27,04,52,16.40
2016,06,27,04,53,16.50
2016,06,27,04,54,16.50
2016,06,27,04,55,16.60
2016,06,27,04,56,16.60
2016,06,27,04,57,16.60
2016,06,27,04,58,16.60
2016,06,27,04,59,16.60
2016,06,27,05,00,16.60
2016,06,27,05,01,16.50
2016,06,27,05,02,16.40
2016,06,27,05,03,16.30
2016,06,27,05,04,16.20
2016,06,27,05,05,16.20
2016,06,27,05,06,16.10
2016,06,27,05,07,16.00
2016,06,27,05,08,15.90
2016,06,27,05,09,15.80
2016,06,27,05,10,15.70
2016,06,27,05,11,15.60
2016,06,27,05,12,15.50
2016,06,27,05,13,15.40
2016,06,27,05,14,15.30
2016,06,27,05,15,15.30
2016,06,27,05,16,15.10
2016,06,27,05,17,15.00
2016,06,27,05,18,15.00
2016,06,27,05,19,15.00
2016,06,27,05,20,15.00
2016,06,27,05,21,15.00
2016,06,27,05,22,15.00
2016,06,27,05,23,15.00
2016,06,27,05,24,15.00
2016,06,27,05,25,15.00
2016,06,27,05,26,15.00
2016,06,27,05,27,15.00
2016,06,27,05,28,15.10
2016,06,27,05,29,15.20
2016,06,27,05,30,15.20
2016,06,27,05,31,15.30
2016,06,27,05,32,15.30
2016,06,27,05,33,15.30
2016,06,27,05,34,15.30
2016,06,27,05,35,15.30
2016,06,27,05,36,15.30
2016,06,27,05,37,15.30
2016,06,27,05,38,15.30
2016,06,27,05,39,15.30
2016,06,27,05,40,15.20
2016,06,27,05,41,15.20
2016,06,27,05,42,15.10
2016,06,27,05,43,15.00
2016,06,27,05,44,15.00
2016,06,27,05,45,15.00
2016,06,27,05,46,15.00
2016,06,27,05,47,15.00
2016,06,27,05,48,15.00
2016,06,27,05,49,15.00
2016,06,27,05,50,15.00
2016,06,27,05,51,15.00
2016,06,27,05,52,15.00
2016,06,27,05,53,15.00
2016,06,27,05,54,15.10
2016,06,27,05,55,15.10
2016,06,27,05,56,15.10
2016,06,27,05,57,15.00
2016,06,27,05,58,14.90
2016,06,27,05,59,14.70
2016,06,27,06,00,14.50
2016,06,27,06,01,14.30
2016,06,27,06,02,14.20
2016,06,27,06,03,14.00
2016,06,27,06,04,13.90
2016,06,27,06,05,13.80
2016,06,27,06,06,13.70
2016,06,27,06,07,13.50
2016,06,27,06,08,13.50
2016,06,27,06,09,13.40
2016,06,27,06,10,13.40
2016,06,27,06,11,13.30
2016,06,27,06,12,13.20
2016,06,27,06,13,13.10
2016,06,27,06,14,13.00
2016,06,27,06,15,12.90
2016,06,27,06,16,12.90
2016,06,27,06,17,12.90
2016,06,27,06,18,12.90
2016,06,27,06,19,12.80
2016,06,27,06,20,12.80
2016,06,27,06,21,12.90
2016,06,27,06,22,12.90
2016,06,27,06,23,12.90
2016,06,27,06,24,12.90
2016,06,27,06,25,12.90
2016,06,27,06,26,13.00
2016,06,27,06,27,13.00
2016,06,27,06,28,13.10
2016,06,27,06,29,13.10
2016,06,27,06,30,13.20
2016,06,27,06,31,13.30
2016,06,27,06,32,13.30
2016,06,27,06,33,13.40
2016,06,27,06,34,13.50
2016,06,27,06,35,13.60
2016,06,27,06,36,13.70
2016,06,27,06,37,13.80
2016,06,27,06,38,13.90
2016,06,27,06,39,14.00
2016,06,27,06,40,14.10
2016,06,27,06,41,14.20
2016,06,27,06,42,14.30
2016,06,27,06,43,14.40
2016,06,27,06,44,14.50
2016,06,27,06,45,14.60
2016,06,27,06,46,14.70
2016,06,27,06,47,14.80
2016,06,27,06,48,14.80
2016,06,27,06,49,15.00
2016,06,27,06,50,15.00
2016,06,27,06,51,15.00
2016,06,27,06,52,15.00
2016,06,27,06,53,15.00
2016,06,27,06,54,15.00
2016,06,27,06,55,15.10
2016,06,27,06,56,15.20
2016,06,27,06,57,15.20
2016,06,27,06,58,15.30
2016,06,27,06,59,15.30
2016,06,27,07,00,15.40
2016,06,27,07,01,15.40
2016,06,27,07,02,15.40
2016,06,27,07,03,15.50
2016,06,27,07,04,15.50
2016,06,27,07,05,15.60
2016,06,27,07,06,15.60
2016,06,27,07,07,15.70
2016,06,27,07,08,15.70
2016,06,27,07,09,15.80
2016,06,27,07,10,15.80
2016,06,27,07,11,15.80
2016,06,27,07,12,15.90
2016,06,27,07,13,16.00
2016,06,27,07,14,16.00
2016,06,27,07,15,16.10
2016,06,27,07,16,16.10
2016,06,27,07,17,16.20
2016,06,27,07,18,16.30
2016,06,27,07,19,16.30
2016,06,27,07,20,16.30
2016,06,27,07,21,16.40
2016,06,27,07,22,16.40
2016,06,27,07,23,16.40
2016,06,27,07,24,16.50
2016,06,27,07,25,16.60
2016,06,27,07,26,16.60
2016,06,27,07,27,16.60
2016,06,27,07,28,16.70
2016,06,27,07,29,16.70
2016,06,27,07,30,16.70
2016,06,27,07,31,16.80
2016,06,27,07,32,16.80
2016,06,27,07,33,16.80
2016,06,27,07,34,16.90
2016,06,27,07,35,16.90
2016,06,27,07,36,17.00
2016,06,27,07,37,17.00
2016,06,27,07,38,17.00
2016,06,27,07,39,17.10
2016,06,27,07,40,17.10
2016,06,27,07,41,17.20
2016,06,27,07,42,17.20
2016,06,27,07,43,17.20
2016,06,27,07,44,17.20
2016,06,27,07,45,17.30
2016,06,27,07,46,17.30
2016,06,27,07,47,17.40
2016,06,27,07,48,17.40
2016,06,27,07,49,17.50
2016,06,27,07,50,17.50
2016,06,27,07,51,17.60
2016,06,27,07,52,17.60
2016,06,27,07,53,17.70
2016,06,27,07,54,17.70
2016,06,27,07,55,17.80
2016,06,27,07,56,17.80
2016,06,27,07,57,17.90
2016,06,27,07,58,17.90
2016,06,27,07,59,18.00
2016,06,27,08,00,18.10
2016,06,27,08,01,18.10
2016,06,27,08,02,18.10
2016,06,27,08,03,18.10
2016,06,27,08,04,18.10
2016,06,27,08,05,18.10
2016,06,27,08,06,18.10
2016,06,27,08,07,18.10
2016,06,27,08,08,18.10
2016,06,27,08,09,18.10
2016,06,27,08,10,18.10
2016,06,27,08,11,18.10
2016,06,27,08,12,18.10
2016,06,27,08,13,18.10
2016,06,27,08,14,18.10
2016,06,27,08,15,18.10
2016,06,27,08,16,18.20
2016,06,27,08,17,18.20
2016,06,27,08,18,18.20
2016,06,27,08,19,18.30
2016,06,27,08,20,18.40
2016,06,27,08,21,18.40
2016,06,27,08,22,18.50
2016,06,27,08,23,18.50
2016,06,27,08,24,18.60
2016,06,27,08,25,18.60
2016,06,27,08,26,18.60
2016,06,27,08,27,18.60
2016,06,27,08,28,18.60
2016,06,27,08,29,18.70
2016,06,27,08,30,18.70
2016,06,27,08,31,18.70
2016,06,27,08,32,18.80
2016,06,27,08,33,18.90
2016,06,27,08,34,18.90
2016,06,27,08,35,19.00
2016,06,27,08,36,19.00
2016,06,27,08,37,19.10
2016,06,27,08,38,19.10
2016,06,27,08,39,19.10
2016,06,27,08,40,19.10
2016,06,27,08,41,19.10
2016,06,27,08,42,19.10
2016,06,27,08,43,19.10
2016,06,27,08,44,19.10
2016,06,27,08,45,19.10
2016,06,27,08,46,19.10
2016,06,27,08,47,19.20
2016,06,27,08,48,19.20
2016,06,27,08,49,19.30
2016,06,27,08,50,19.30
2016,06,27,08,51,19.30
2016,06,27,08,52,19.30
2016,06,27,08,53,19.30
2016,06,27,08,54,19.30
2016,06,27,08,55,19.20
2016,06,27,08,56,19.20
2016,06,27,08,57,19.30
2016,06,27,08,58,19.30
2016,06,27,08,59,19.40
2016,06,27,09,00,19.40
2016,06,27,09,01,19.50
2016,06,27,09,02,19.50
2016,06,27,09,03,19.50
2016,06,27,09,04,19.60
2016,06,27,09,05,19.70
2016,06,27,09,06,19.60
2016,06,27,09,07,19.60
2016,06,27,09,08,19.70
2016,06,27,09,09,19.70
2016,06,27,09,10,19.70
2016,06,27,09,11,19.80
2016,06,27,09,12,19.70
2016,06,27,09,13,19.70
2016,06,27,09,14,19.70
2016,06,27,09,15,19.70
2016,06,27,09,16,19.70
2016,06,27,09,17,19.70
2016,06,27,09,18,19.80
2016,06,27,09,19,19.90
2016,06,27,09,20,19.90
2016,06,27,09,21,19.90
2016,06,27,09,22,19.90
2016,06,27,09,23,19.90
2016,06,27,09,24,19.90
2016,06,27,09,25,20.00
2016,06,27,09,26,20.10
2016,06,27,09,27,20.20
2016,06,27,09,28,20.20
2016,06,27,09,29,20.30
2016,06,27,09,30,20.40
2016,06,27,09,31,20.40
2016,06,27,09,32,20.40
2016,06,27,09,33,20.50
2016,06,27,09,34,20.50
2016,06,27,09,35,20.40
2016,06,27,09,36,20.50
2016,06,27,09,37,20.50
2016,06,27,09,38,20.50
2016,06,27,09,39,20.50
2016,06,27,09,40,20.60
2016,06,27,09,41,20.60
2016,06,27,09,42,20.60
2016,06,27,09,43,20.70
2016,06,27,09,44,20.80
2016,06,27,09,45,20.80
2016,06,27,09,46,20.80
2016,06,27,09,47,20.80
2016,06,27,09,48,20.80
2016,06,27,09,49,20.80
2016,06,27,09,50,20.80
2016,06,27,09,51,20.60
2016,06,27,09,52,20.60
2016,06,27,09,53,20.50
2016,06,27,09,54,20.40
2016,06,27,09,55,20.30
2016,06,27,09,56,20.30
2016,06,27,09,57,20.30
2016,06,27,09,58,20.30
2016,06,27,09,59,20.30
2016,06,27,10,00,20.30
2016,06,27,10,01,20.40
2016,06,27,10,02,20.40
2016,06,27,10,03,20.30
2016,06,27,10,04,20.20
2016,06,27,10,05,20.10
2016,06,27,10,06,20.20
2016,06,27,10,07,20.20
2016,06,27,10,08,20.20
2016,06,27,10,09,20.20
2016,06,27,10,10,20.20
2016,06,27,10,11,20.30
2016,06,27,10,12,20.30
2016,06,27,10,13,20.30
2016,06,27,10,14,20.30
2016,06,27,10,15,20.30
2016,06,27,10,16,20.20
2016,06,27,10,17,20.10
2016,06,27,10,18,20.00
2016,06,27,10,19,20.10
2016,06,27,10,20,20.10
2016,06,27,10,21,20.00
2016,06,27,10,22,19.90
2016,06,27,10,23,19.90
2016,06,27,10,24,19.70
2016,06,27,10,25,19.70
2016,06,27,10,26,19.50
2016,06,27,10,27,19.40
2016,06,27,10,28,19.40
2016,06,27,10,29,19.50
2016,06,27,10,30,19.50
2016,06,27,10,31,19.50
2016,06,27,10,32,19.60
2016,06,27,10,33,19.70
2016,06,27,10,34,19.70
2016,06,27,10,35,19.80
2016,06,27,10,36,19.80
2016,06,27,10,37,19.90
2016,06,27,10,38,19.90
2016,06,27,10,39,19.90
2016,06,27,10,40,19.90
2016,06,27,10,41,19.90
2016,06,27,10,42,19.80
2016,06,27,10,43,19.80
2016,06,27,10,44,19.80
2016,06,27,10,45,19.70
2016,06,27,10,46,19.60
2016,06,27,10,47,19.60
2016,06,27,10,48,19.60
2016,06,27,10,49,19.70
2016,06,27,10,50,19.80
2016,06,27,10,51,19.80
2016,06,27,10,52,19.80
2016,06,27,10,53,19.80
2016,06,27,10,54,19.90
2016,06,27,10,55,19.90
2016,06,27,10,56,19.90
2016,06,27,10,57,19.90
2016,06,27,10,58,19.80
2016,06,27,10,59,19.80
2016,06,27,11,00,19.90
2016,06,27,11,01,19.90
2016,06,27,11,02,20.00
2016,06,27,11,03,20.00
2016,06,27,11,04,20.00
2016,06,27,11,05,20.00
2016,06,27,11,06,20.00
2016,06,27,11,07,20.00
2016,06,27,11,08,20.00
2016,06,27,11,09,20.00
2016,06,27,11,10,20.00
2016,06,27,11,11,20.10
2016,06,27,11,12,20.10
2016,06,27,11,13,20.20
2016,06,27,11,14,20.30
2016,06,27,11,15,20.30
2016,06,27,11,16,20.30
2016,06,27,11,17,20.30
2016,06,27,11,18,20.30
2016,06,27,11,19,20.30
2016,06,27,11,20,20.20
2016,06,27,11,21,20.10
2016,06,27,11,22,20.00
2016,06,27,11,23,20.00
2016,06,27,11,24,19.90
2016,06,27,11,25,19.90
2016,06,27,11,26,20.00
2016,06,27,11,27,20.10
2016,06,27,11,28,20.20
2016,06,27,11,29,20.30
2016,06,27,11,30,20.30
2016,06,27,11,31,20.30
2016,06,27,11,32,20.40
2016,06,27,11,33,20.40
2016,06,27,11,34,20.60
2016,06,27,11,35,20.70
2016,06,27,11,36,20.70
2016,06,27,11,37,20.70
2016,06,27,11,38,20.70
2016,06,27,11,39,20.70
2016,06,27,11,40,20.70
2016,06,27,11,41,20.70
2016,06,27,11,42,20.70
2016,06,27,11,43,20.70
2016,06,27,11,44,20.60
2016,06,27,11,45,20.60
2016,06,27,11,46,20.50
2016,06,27,11,47,20.50
2016,06,27,11,48,20.50
2016,06,27,11,49,20.50
2016,06,27,11,50,20.70
2016,06,27,11,51,20.70
2016,06,27,11,52,20.80
2016,06,27,11,53,20.80
2016,06,27,11,54,20.80
2016,06,27,11,55,20.90
2016,06,27,11,56,20.90
2016,06,27,11,57,20.90
2016,06,27,11,58,20.90
2016,06,27,11,59,20.90
2016,06,27,12,00,21.00
2016,06,27,12,01,21.10
2016,06,27,12,02,21.20
2016,06,27,12,03,21.20
2016,06,27,12,04,21.20
2016,06,27,12,05,21.10
2016,06,27,12,06,21.10
2016,06,27,12,07,21.20
2016,06,27,12,08,21.30
2016,06,27,12,09,21.40
2016,06,27,12,10,21.40
2016,06,27,12,11,21.50
2016,06,27,12,12,21.50
2016,06,27,12,13,21.40
2016,06,27,12,14,21.40
2016,06,27,12,15,21.50
2016,06,27,12,16,21.60
2016,06,27,12,17,21.80
2016,06,27,12,18,21.90
2016,06,27,12,19,21.90
2016,06,27,12,20,22.00
2016,06,27,12,21,22.10
2016,06,27,12,22,22.10
2016,06,27,12,23,22.20
2016,06,27,12,24,22.10
2016,06,27,12,25,22.10
2016,06,27,12,26,22.10
2016,06,27,12,27,22.10
2016,06,27,12,28,22.10
2016,06,27,12,29,22.10
2016,06,27,12,30,22.20
2016,06,27,12,31,22.30
2016,06,27,12,32,22.30
2016,06,27,12,33,22.30
2016,06,27,12,34,22.30
2016,06,27,12,35,22.20
2016,06,27,12,36,22.20
2016,06,27,12,37,22.20
2016,06,27,12,38,22.20
2016,06,27,12,39,22.20
2016,06,27,12,40,22.20
2016,06,27,12,41,22.20
2016,06,27,12,42,22.20
2016,06,27,12,43,22.10
2016,06,27,12,44,22.10
2016,06,27,12,45,22.10
2016,06,27,12,46,22.20
2016,06,27,12,47,22.30
2016,06,27,12,48,22.30
2016,06,27,12,49,22.40
2016,06,27,12,50,22.50
2016,06,27,12,51,22.70
2016,06,27,12,52,22.70
2016,06,27,12,53,22.70
2016,06,27,12,54,22.70
2016,06,27,12,55,22.80
2016,06,27,12,56,22.80
2016,06,27,12,57,22.70
2016,06,27,12,58,22.70
2016,06,27,12,59,22.80
2016,06,27,13,00,22.80
2016,06,27,13,01,22.80
2016,06,27,13,02,22.80
2016,06,27,13,03,22.70
2016,06,27,13,04,22.60
2016,06,27,13,05,22.70
2016,06,27,13,06,22.80
2016,06,27,13,07,22.90
2016,06,27,13,08,22.90
2016,06,27,13,09,22.80
2016,06,27,13,10,22.80
2016,06,27,13,11,22.80
2016,06,27,13,12,22.90
2016,06,27,13,13,22.80
2016,06,27,13,14,22.60
2016,06,27,13,15,22.50
2016,06,27,13,16,22.50
2016,06,27,13,17,22.50
2016,06,27,13,18,22.60
2016,06,27,13,19,22.60
2016,06,27,13,20,22.70
2016,06,27,13,21,22.70
2016,06,27,13,22,22.80
2016,06,27,13,23,22.70
2016,06,27,13,24,22.80
2016,06,27,13,25,22.80
2016,06,27,13,26,22.70
2016,06,27,13,27,22.70
2016,06,27,13,28,22.80
2016,06,27,13,29,22.90
2016,06,27,13,30,23.00
2016,06,27,13,31,23.00
2016,06,27,13,32,22.90
2016,06,27,13,33,22.80
2016,06,27,13,34,22.80
2016,06,27,13,35,22.70
2016,06,27,13,36,22.70
2016,06,27,13,37,22.70
2016,06,27,13,38,22.70
2016,06,27,13,39,22.70
2016,06,27,13,40,22.80
2016,06,27,13,41,23.00
2016,06,27,13,42,23.10
2016,06,27,13,43,23.20
2016,06,27,13,44,23.20
2016,06,27,13,45,23.20
2016,06,27,13,46,23.20
2016,06,27,13,47,23.30
2016,06,27,13,48,23.40
2016,06,27,13,49,23.40
2016,06,27,13,50,23.40
2016,06,27,13,51,23.40
2016,06,27,13,52,23.40
2016,06,27,13,53,23.40
2016,06,27,13,54,23.40
2016,06,27,13,55,23.40
2016,06,27,13,56,23.40
2016,06,27,13,57,23.50
2016,06,27,13,58,23.60
2016,06,27,13,59,23.70
2016,06,27,14,00,23.70
2016,06,27,14,01,23.70
2016,06,27,14,02,23.80
2016,06,27,14,03,23.80
2016,06,27,14,04,23.80
2016,06,27,14,05,23.80
2016,06,27,14,06,23.80
2016,06,27,14,07,23.80
2016,06,27,14,08,23.90
2016,06,27,14,09,24.00
2016,06,27,14,10,23.90
2016,06,27,14,11,23.80
2016,06,27,14,12,23.70
2016,06,27,14,13,23.60
2016,06,27,14,14,23.70
2016,06,27,14,15,23.70
2016,06,27,14,16,23.80
2016,06,27,14,17,23.90
2016,06,27,14,18,24.00
2016,06,27,14,19,24.00
2016,06,27,14,20,23.90
2016,06,27,14,21,23.90
2016,06,27,14,22,23.90
2016,06,27,14,23,24.00
2016,06,27,14,24,24.00
2016,06,27,14,25,24.10
2016,06,27,14,26,24.00
2016,06,27,14,27,24.00
2016,06,27,14,28,24.00
2016,06,27,14,29,24.00
2016,06,27,14,30,24.00
2016,06,27,14,31,24.00
2016,06,27,14,32,24.00
2016,06,27,14,33,24.10
2016,06,27,14,34,24.20
2016,06,27,14,35,24.10
2016,06,27,14,36,24.10
2016,06,27,14,37,24.10
2016,06,27,14,38,24.20
2016,06,27,14,39,24.10
2016,06,27,14,40,24.10
2016,06,27,14,41,24.10
2016,06,27,14,42,24.20
2016,06,27,14,43,24.30
2016,06,27,14,44,24.30
2016,06,27,14,45,24.30
2016,06,27,14,46,24.30
2016,06,27,14,47,24.50
2016,06,27,14,48,24.60
2016,06,27,14,49,24.70
2016,06,27,14,50,24.70
2016,06,27,14,51,24.70
2016,06,27,14,52,24.70
2016,06,27,14,53,24.70
2016,06,27,14,54,24.80
2016,06,27,14,55,24.80
2016,06,27,14,56,24.90
2016,06,27,14,57,24.90
2016,06,27,14,58,25.00
2016,06,27,14,59,25.00
2016,06,27,15,00,25.00
2016,06,27,15,01,24.90
2016,06,27,15,02,24.80
2016,06,27,15,03,24.70
2016,06,27,15,04,24.70
2016,06,27,15,05,24.60
2016,06,27,15,06,24.60
2016,06,27,15,07,24.60
2016,06,27,15,08,24.60
2016,06,27,15,09,24.60
2016,06,27,15,10,24.70
2016,06,27,15,11,24.80
2016,06,27,15,12,24.90
2016,06,27,15,13,25.00
2016,06,27,15,14,25.10
2016,06,27,15,15,25.10
2016,06,27,15,16,25.20
2016,06,27,15,17,25.20
2016,06,27,15,18,25.30
2016,06,27,15,19,25.30
2016,06,27,15,20,25.30
2016,06,27,15,21,25.30
2016,06,27,15,22,25.30
2016,06,27,15,23,25.30
2016,06,27,15,24,25.40
2016,06,27,15,25,25.40
2016,06,27,15,26,25.50
2016,06,27,15,27,25.60
2016,06,27,15,28,25.60
2016,06,27,15,29,25.50
2016,06,27,15,30,25.50
2016,06,27,15,31,25.40
2016,06,27,15,32,25.30
2016,06,27,15,33,25.40
2016,06,27,15,34,25.40
2016,06,27,15,35,25.40
2016,06,27,15,36,25.40
2016,06,27,15,37,25.40
2016,06,27,15,38,25.40
2016,06,27,15,39,25.40
2016,06,27,15,40,25.40
2016,06,27,15,41,25.50
2016,06,27,15,42,25.50
2016,06,27,15,43,25.50
2016,06,27,15,44,25.40
2016,06,27,15,45,25.40
2016,06,27,15,46,25.30
2016,06,27,15,47,25.20
2016,06,27,15,48,25.20
2016,06,27,15,49,25.20
2016,06,27,15,50,25.20
2016,06,27,15,51,25.30
2016,06,27,15,52,25.40
2016,06,27,15,53,25.50
2016,06,27,15,54,25.50
2016,06,27,15,55,25.60
2016,06,27,15,56,25.60
2016,06,27,15,57,25.60
2016,06,27,15,58,25.70
2016,06,27,15,59,25.90
2016,06,27,16,00,25.90
2016,06,27,16,01,25.90
2016,06,27,16,02,25.70
2016,06,27,16,03,25.70
2016,06,27,16,04,25.70
2016,06,27,16,05,25.70
2016,06,27,16,06,25.70
2016,06,27,16,07,25.70
2016,06,27,16,08,25.70
2016,06,27,16,09,25.90
2016,06,27,16,10,25.90
2016,06,27,16,11,25.90
2016,06,27,16,12,26.00
2016,06,27,16,13,26.00
2016,06,27,16,14,26.00
2016,06,27,16,15,26.00
2016,06,27,16,16,25.90
2016,06,27,16,17,25.90
2016,06,27,16,18,25.90
2016,06,27,16,19,26.00
2016,06,27,16,20,26.10
2016,06,27,16,21,26.10
2016,06,27,16,22,26.10
2016,06,27,16,23,26.20
2016,06,27,16,24,26.20
2016,06,27,16,25,26.20
2016,06,27,16,26,26.20
2016,06,27,16,27,26.20
2016,06,27,16,28,26.20
2016,06,27,16,29,26.20
2016,06,27,16,30,26.30
2016,06,27,16,31,26.40
2016,06,27,16,32,26.40
2016,06,27,16,33,26.50
2016,06,27,16,34,26.50
2016,06,27,16,35,26.60
2016,06,27,16,36,26.60
2016,06,27,16,37,26.70
2016,06,27,16,38,26.60
2016,06,27,16,39,26.60
2016,06,27,16,40,26.60
2016,06,27,16,41,26.60
2016,06,27,16,42,26.60
2016,06,27,16,43,26.70
2016,06,27,16,44,26.70
2016,06,27,16,45,26.70
2016,06,27,16,46,26.80
2016,06,27,16,47,26.80
2016,06,27,16,48,26.70
2016,06,27,16,49,26.70
2016,06,27,16,50,26.80
2016,06,27,16,51,26.70
2016,06,27,16,52,26.70
2016,06,27,16,53,26.70
2016,06,27,16,54,26.60
2016,06,27,16,55,26.50
2016,06,27,16,56,26.50
2016,06,27,16,57,26.60
2016,06,27,16,58,26.70
2016,06,27,16,59,26.60
2016,06,27,17,00,26.60
2016,06,27,17,01,26.60
2016,06,27,17,02,26.70
2016,06,27,17,03,26.70
2016,06,27,17,04,26.70
2016,06,27,17,05,26.70
2016,06,27,17,06,26.80
2016,06,27,17,07,26.90
2016,06,27,17,08,26.90
2016,06,27,17,09,27.00
2016,06,27,17,10,27.10
2016,06,27,17,11,27.10
2016,06,27,17,12,27.00
2016,06,27,17,13,26.90
2016,06,27,17,14,27.00
2016,06,27,17,15,27.00
2016,06,27,17,16,26.90
2016,06,27,17,17,26.90
2016,06,27,17,18,26.90
2016,06,27,17,19,26.90